This is the latest recevied weather packets stored in our database for station/object EA5JUX. If no packets are shown the sender has not sent any weather packets the latest 10 day(s).
| Time | Temp. | Humidity | Pressure | Rain* | Wind** | Luminosity | Snow |
|---|---|---|---|---|---|---|---|
| 1777636889 | 22.22° C | 70% | 1019.6 hPa | 0 mm | - | - | - |
| 1777636590 | 22.78° C | 70% | 1019.2 hPa | 0 mm | - | - | - |
| 1777636290 | 22.22° C | 70% | 1019.3 hPa | 0 mm | - | - | - |
| 1777636009 | 22.22° C | 71% | 1019.4 hPa | 0 mm | - | - | - |
| 1777635689 | 22.22° C | 74% | 1019.3 hPa | 0 mm | - | - | - |
| 1777635402 | 21.67° C | 74% | 1019.3 hPa | 0 mm | - | - | - |
| 1777635089 | 21.67° C | 73% | 1019.3 hPa | 0 mm | - | - | - |
| 1777634790 | 22.22° C | 73% | 1019.6 hPa | 0 mm | - | - | - |
| 1777634490 | 21.67° C | 76% | 1019.4 hPa | 0 mm | - | - | - |
| 1777634189 | 21.11° C | 76% | 1019.7 hPa | 0 mm | - | - | - |
| 1777633890 | 21.11° C | 77% | 1019.5 hPa | 0 mm | - | - | - |
| 1777633589 | 21.67° C | 76% | 1019.4 hPa | 0 mm | - | - | - |
| 1777633299 | 22.22° C | 75% | 1019.6 hPa | 0 mm | - | - | - |
| 1777632690 | 21.11° C | 78% | 1019.7 hPa | 0 mm | - | - | - |
| 1777632389 | 20.56° C | 78% | 1019.5 hPa | 0 mm | - | - | - |
| 1777632089 | 20.56° C | 78% | 1019.6 hPa | 0 mm | - | - | - |
| 1777631811 | 21.11° C | 78% | 1019.7 hPa | 0 mm | - | - | - |
| 1777631510 | 21.11° C | 77% | 1019.9 hPa | 0 mm | - | - | - |
| 1777631189 | 21.11° C | 78% | 1019.9 hPa | 0 mm | - | - | - |
| 1777630890 | 21.11° C | 77% | 1019.9 hPa | 0 mm | - | - | - |
| 1777630598 | 21.11° C | 78% | 1020.2 hPa | 0 mm | - | - | - |
| 1777630289 | 21.11° C | 79% | 1020.1 hPa | 0 mm | - | - | - |
| 1777629989 | 20.56° C | 80% | 1019.9 hPa | 0 mm | - | - | - |
| 1777629689 | 20.56° C | 81% | 1020.2 hPa | 0 mm | - | - | - |
| 1777629389 | 20° C | 81% | 1020.4 hPa | 0 mm | - | - | - |
* Rain latest hour (hover to see other rain measurements)
** Current wind speed in m/s (hover to see current wind gust speed)